Location: Julian California
(33.0790°N, 116.6010°W)
Time: 17:33:01
(UTC-07:00)

NOSS 2-3 (C) - Pass Details

Date: 14 June 2018
Orbit: 628 x 1583 km, 63.4° (Epoch: 16 June)

Event Time Altitude Azimuth Distance (km) Brightness Sun altitude
Exits shadow 21:05:46 - 188° (S) 2,880 6.7 -12.9°
Reaches altitude 10° 21:08:05 10° 179° (S) 1,993 5.8 -13.2°
Maximum altitude 21:12:04 35° 113° (ESE) 1,057 4.2 -13.9°
Drops below altitude 10° 21:16:26 10° 48° (NE) 2,178 6.3 -14.6°
Sets 21:19:06 0° 40° (NE) 3,211 7.3 -15.0°
